User: anonymous   Login
Location: Unspecified
(40.7945°N, 0.0000°E)
Time: 17:38:46
(UTC+00:00)
Language:

UWE-3 - Orbit

View from above orbital plane
View from above orbital plane
View from above satellite
View from above satellite

Ground track
Ground track

The orbit data is extracted from the following two-line orbital elements,

1 39446U 13066AG  19229.04467197  .00000106  00000-0  20847-4 0  9995
2 39446  97.5824 231.0716 0068827 225.5232 134.0341 14.78408046308037
Epoch (UTC): 17 August 2019 01:04:19
Eccentricity: 0.0068827
inclination: 97.5824°
perigee height: 586 km
apogee height: 682 km
right ascension of ascending node: 231.0716°
argument of perigee: 225.5232°
revolutions per day: 14.78408046
mean anomaly at epoch: 134.0341°
orbit number at epoch: 30803

The dashed part of the orbit path shows where the satellite is in the earth's shadow,  

DLR